Westminster, MD

7:56 AM EST on January 16, 2017 (GMT -0500)
Carroll County Regional-Poage

Weather History for KDMW - March, 2012

Change the Weather History Date:

Thursday, March 15, 2012

  Actual Average (KTHV) Record (KTHV)
Temperature  
Mean Temperature 66 °F -  
Max Temperature 80 °F 0 °F 75 °F (2002)
Min Temperature 51 °F - 19 °F (2005)
Growing Degree Days 16 (Base 50)    
Moisture  
Dew Point 44 °F    
Average Humidity 50    
Maximum Humidity 77    
Minimum Humidity 23    
Precipitation  
Precipitation 0.00 in - - ()
Sea Level Pressure  
Sea Level Pressure 30.18 in    
Wind  
Wind Speed 2 mph (SE)    
Max Wind Speed 13 mph    
Max Gust Speed 17 mph    
Visibility 10 miles    
Events Thunderstorm    
Averages and records for this station are not official NWS values.
T = Trace of Precipitation, MM = Missing Value Source: NWS Daily Summary

Daily Weather History Graph

Daily Weather History Graph

Search for Another Location

Airport or City:

Trip Planner

Search our weather history database for the weather conditions in past years. The results will help you decide how hot, cold, wet, or windy it might be!

Date:

Astronomy

Mar. 15, 2012 Rise Set
Actual Time 7:18 AM EDT 7:15 PM EDT
Civil Twilight 6:51 AM EDT 7:42 PM EDT
Nautical Twilight 6:20 AM EDT 8:13 PM EDT
Astronomical Twilight 5:48 AM EDT 8:45 PM EDT
Moon 2:43 AM EDT (3/15) 12:31 PM EDT (3/15)
Length of Visible Light 12h 50m
Length of Day
11h 56m
Last Quarter, 43% of the Moon is Illuminated
Mar 15
Last Quarter
Mar 22
New
Mar 30
First Quarter
Apr 6
Full
Apr 13
Last Quarter

Hourly Weather History & Observations

Time (EDT) Temp. Dew Point Humidity Pressure Visibility Wind Dir Wind Speed Gust Speed Precip Events Conditions
12:01 AM 64.4 °F 35.6 °F 34% 30.20 in 10.0 mi Calm Calm - N/A   Clear
12:22 AM 62.6 °F 35.6 °F 37% 30.20 in 10.0 mi Calm Calm - N/A   Clear
12:43 AM 62.6 °F 37.4 °F 39% 30.20 in 10.0 mi Calm Calm - N/A   Clear
1:04 AM 62.6 °F 37.4 °F 39% 30.19 in 10.0 mi Calm Calm - N/A   Clear
1:25 AM 62.6 °F 37.4 °F 39% 30.20 in 10.0 mi Calm Calm - N/A   Clear
1:46 AM 60.8 °F 37.4 °F 42% 30.20 in 10.0 mi Calm Calm - N/A   Clear
2:10 AM 60.8 °F 39.2 °F 45% 30.20 in 10.0 mi Calm Calm - N/A   Clear
2:31 AM 57.2 °F 41.0 °F 55% 30.20 in 10.0 mi Calm Calm - N/A   Clear
2:52 AM 57.2 °F 41.0 °F 55% 30.20 in 10.0 mi Calm Calm - N/A   Clear
3:10 AM 59.0 °F 41.0 °F 51% 30.19 in 10.0 mi Calm Calm - N/A   Clear
3:55 AM 55.4 °F 42.8 °F 63% 30.17 in 10.0 mi Calm Calm - N/A   Clear
4:16 AM 55.4 °F 42.8 °F 63% 30.18 in 10.0 mi Calm Calm - N/A   Clear
4:37 AM 57.2 °F 42.8 °F 59% 30.18 in 10.0 mi Calm Calm - N/A   Clear
4:58 AM 55.4 °F 42.8 °F 63% 30.17 in 10.0 mi Calm Calm - N/A   Clear
5:22 AM 53.6 °F 42.8 °F 67% 30.17 in 10.0 mi Calm Calm - N/A   Clear
5:43 AM 53.6 °F 42.8 °F 67% 30.18 in 10.0 mi Calm Calm - N/A   Clear
6:04 AM 53.6 °F 42.8 °F 67% 30.18 in 10.0 mi Calm Calm - N/A   Clear
6:25 AM 53.6 °F 42.8 °F 67% 30.18 in 10.0 mi Calm Calm - N/A   Clear
6:46 AM 53.6 °F 44.6 °F 72% 30.18 in 10.0 mi Calm Calm - N/A Thunderstorm Clear
7:07 AM 53.6 °F 44.6 °F 72% 30.18 in 10.0 mi Calm Calm - N/A   Clear
7:28 AM 51.8 °F 42.8 °F 71% 30.18 in 10.0 mi Calm Calm - N/A   Clear
7:49 AM 53.6 °F 42.8 °F 67% 30.19 in 10.0 mi Calm Calm - N/A   Clear
8:10 AM 55.4 °F 44.6 °F 67% 30.20 in 10.0 mi Calm Calm - N/A   Clear
8:31 AM 57.2 °F 44.6 °F 63% 30.21 in 10.0 mi Calm Calm - N/A   Clear
8:52 AM 60.8 °F 42.8 °F 52% 30.21 in 10.0 mi Calm Calm - N/A   Clear
9:16 AM 62.6 °F 42.8 °F 48% 30.21 in 10.0 mi Calm Calm - N/A   Clear
9:58 AM 64.4 °F 44.6 °F 49% 30.22 in 10.0 mi Calm Calm - N/A   Clear
10:19 AM 66.2 °F 44.6 °F 46% 30.22 in 10.0 mi Calm Calm - N/A   Clear
10:40 AM 69.8 °F 42.8 °F 38% 30.22 in 10.0 mi Calm Calm - N/A   Clear
11:01 AM 69.8 °F 46.4 °F 43% 30.21 in 10.0 mi Calm Calm - N/A   Clear
11:22 AM 71.6 °F 42.8 °F 35% 30.20 in 10.0 mi Calm Calm - N/A   Clear
12:04 PM 73.4 °F 37.4 °F 27% 30.19 in 10.0 mi Calm Calm - N/A   Clear
12:25 PM 77.0 °F 37.4 °F 24% 30.19 in 10.0 mi Calm Calm - N/A   Clear
12:49 PM 77.0 °F 39.2 °F 26% 30.20 in 10.0 mi WSW 5.8 mph - N/A   Clear
1:10 PM 77.0 °F 41.0 °F 28% 30.19 in 10.0 mi SW 5.8 mph - N/A   Clear
1:31 PM 77.0 °F 39.2 °F 26% 30.18 in 10.0 mi WSW 5.8 mph - N/A   Scattered Clouds
1:52 PM 78.8 °F 39.2 °F 24% 30.18 in 10.0 mi Calm Calm - N/A   Scattered Clouds
2:13 PM 78.8 °F 44.6 °F 30% 30.17 in 10.0 mi WSW 6.9 mph - N/A   Scattered Clouds
2:34 PM 80.6 °F 42.8 °F 26% 30.16 in 10.0 mi South 6.9 mph - N/A   Scattered Clouds
2:55 PM 78.8 °F 37.4 °F 23% 30.15 in 10.0 mi SE 8.1 mph - N/A   Mostly Cloudy
3:16 PM 78.8 °F 41.0 °F 26% 30.15 in 10.0 mi SE 12.7 mph 16.1 mph N/A   Scattered Clouds
3:37 PM 78.8 °F 41.0 °F 26% 30.15 in 10.0 mi SE 8.1 mph - N/A   Clear
3:58 PM 77.0 °F 44.6 °F 32% 30.15 in 10.0 mi SE 12.7 mph - N/A   Clear
4:22 PM 75.2 °F 41.0 °F 29% 30.14 in 10.0 mi SE 11.5 mph 17.3 mph N/A   Clear
4:43 PM 73.4 °F 48.2 °F 41% 30.14 in 10.0 mi ESE 10.4 mph 17.3 mph N/A   Clear
5:04 PM 73.4 °F 48.2 °F 41% 30.13 in 10.0 mi SE 10.4 mph - N/A   Clear
5:25 PM 71.6 °F 48.2 °F 43% 30.14 in 10.0 mi SE 10.4 mph - N/A   Clear
5:46 PM 69.8 °F 48.2 °F 46% 30.14 in 10.0 mi SE 11.5 mph - N/A   Mostly Cloudy
6:07 PM 69.8 °F 50.0 °F 49% 30.14 in 10.0 mi ESE 4.6 mph - N/A   Overcast
6:28 PM 68.0 °F 51.8 °F 56% 30.14 in 10.0 mi SE 11.5 mph 16.1 mph N/A   Mostly Cloudy
6:49 PM 66.2 °F 51.8 °F 60% 30.16 in 10.0 mi South 4.6 mph - N/A   Overcast
7:10 PM 66.2 °F 51.8 °F 60% 30.16 in 10.0 mi SE 6.9 mph - N/A   Overcast
7:31 PM 64.4 °F 51.8 °F 64% 30.16 in 10.0 mi ESE 4.6 mph - N/A   Overcast
8:13 PM 62.6 °F 50.0 °F 63% 30.16 in 10.0 mi East 5.8 mph - N/A   Mostly Cloudy
8:37 PM 62.6 °F 50.0 °F 63% 30.16 in 10.0 mi ESE 9.2 mph - N/A   Mostly Cloudy
8:58 PM 60.8 °F 48.2 °F 63% 30.17 in 10.0 mi ESE 8.1 mph - N/A   Scattered Clouds
9:19 PM 59.0 °F 48.2 °F 67% 30.17 in 10.0 mi East 8.1 mph - N/A   Scattered Clouds
9:40 PM 57.2 °F 48.2 °F 72% 30.16 in 10.0 mi ESE 6.9 mph - N/A   Scattered Clouds
10:01 PM 57.2 °F 48.2 °F 72% 30.17 in 10.0 mi ESE 5.8 mph - N/A   Clear
10:22 PM 55.4 °F 48.2 °F 77% 30.18 in 10.0 mi Calm Calm - N/A   Clear
10:43 PM 55.4 °F 48.2 °F 77% 30.19 in 10.0 mi Calm Calm - N/A   Scattered Clouds
11:04 PM 55.4 °F 48.2 °F 77% 30.20 in 10.0 mi Calm Calm - N/A   Clear
11:28 PM 55.4 °F 48.2 °F 77% 30.21 in 10.0 mi Calm Calm - N/A   Clear
11:49 PM 53.6 °F 48.2 °F 82% 30.20 in 10.0 mi East 5.8 mph - N/A   Scattered Clouds